TimeCST,TemperatureF,Dew PointF,Humidity,Sea Level PressureIn,VisibilityMPH,Wind Direction,Wind SpeedMPH,Gust SpeedMPH,PrecipitationIn,Events,Conditions,WindDirDegrees,DateUTC
12:52 AM,28.0,23.0,81,30.32,7.0,NNW,8.1,-,N/A,,Overcast,340,2013-01-02 06:52:00
1:52 AM,28.0,21.9,78,30.31,10.0,NW,8.1,-,N/A,,Overcast,320,2013-01-02 07:52:00
2:52 AM,28.9,21.9,75,30.30,10.0,North,3.5,-,N/A,,Overcast,360,2013-01-02 08:52:00
3:52 AM,28.9,21.9,75,30.30,10.0,Calm,Calm,-,N/A,,Overcast,0,2013-01-02 09:52:00
4:25 AM,28.4,21.2,74,30.26,10.0,NW,3.5,-,N/A,,Overcast,320,2013-01-02 10:25:00
4:52 AM,28.0,23.0,81,30.30,10.0,NW,6.9,-,N/A,,Overcast,310,2013-01-02 10:52:00
5:52 AM,28.4,21.2,74,30.25,10.0,NW,4.6,-,N/A,,Overcast,320,2013-01-02 11:52:00
6:52 AM,28.0,21.9,78,30.28,10.0,WSW,6.9,-,N/A,,Overcast,240,2013-01-02 12:52:00
7:52 AM,28.0,21.9,78,30.30,10.0,WSW,5.8,-,N/A,,Overcast,240,2013-01-02 13:52:00
8:36 AM,26.6,21.2,80,30.27,7.0,SW,5.8,-,N/A,,Mostly Cloudy,220,2013-01-02 14:36:00
8:52 AM,26.6,21.2,80,30.27,8.0,SW,6.9,-,N/A,,Scattered Clouds,230,2013-01-02 14:52:00
9:52 AM,28.9,21.9,75,30.32,10.0,WSW,9.2,-,N/A,,Scattered Clouds,240,2013-01-02 15:52:00
10:52 AM,32.0,23.0,69,30.32,10.0,SW,10.4,-,N/A,,Scattered Clouds,220,2013-01-02 16:52:00
11:52 AM,36.0,24.1,62,30.30,10.0,WSW,11.5,-,N/A,,Scattered Clouds,250,2013-01-02 17:52:00
12:52 PM,39.0,25.0,57,30.25,10.0,WSW,11.5,16.1,N/A,,Mostly Cloudy,240,2013-01-02 18:52:00
1:52 PM,39.9,24.1,53,30.22,10.0,SW,11.5,-,N/A,,Mostly Cloudy,220,2013-01-02 19:52:00
2:52 PM,42.1,24.1,49,30.21,10.0,WSW,9.2,-,N/A,,Scattered Clouds,240,2013-01-02 20:52:00
3:52 PM,43.0,24.1,47,30.22,10.0,West,10.4,-,N/A,,Scattered Clouds,270,2013-01-02 21:52:00
4:52 PM,42.1,25.0,51,30.23,10.0,West,8.1,-,N/A,,Clear,280,2013-01-02 22:52:00
5:52 PM,37.0,24.1,59,30.25,10.0,WSW,3.5,-,N/A,,Partly Cloudy,250,2013-01-02 23:52:00
6:52 PM,37.0,26.1,65,30.27,10.0,NNW,11.5,-,N/A,,Clear,340,2013-01-03 00:52:00
7:52 PM,35.1,26.1,70,30.30,10.0,NNW,13.8,-,N/A,,Clear,340,2013-01-03 01:52:00
8:52 PM,34.0,25.0,70,30.31,10.0,North,6.9,-,N/A,,Clear,350,2013-01-03 02:52:00
9:52 PM,30.9,25.0,79,30.33,10.0,WNW,4.6,-,N/A,,Clear,300,2013-01-03 03:52:00
10:52 PM,30.9,24.1,76,30.35,10.0,NW,6.9,-,N/A,,Clear,320,2013-01-03 04:52:00
11:52 PM,28.0,23.0,81,30.35,10.0,NW,3.5,-,N/A,,Clear,310,2013-01-03 05:52:00